RH
27 13 6 5 7 7 15 41 47 65 87 94 96 97 96 95 95 92 59 43 13 9 18 43 85 88 99 95 98 34 68 45
24 10 6 5 7 7 12 13 41 53 39 37 80 94 96 93 96 96 93 63 47 16 31 58 83 70 96 97 90 70 24 38
20 8 8 7 6 6 9 12 20 24 23 40 67 73 84 94 97 95 97 96 91 74 39 49 84 62 92 93 79 49 47 54
17 8 7 6 7 11 15 12 16 23 21 37 55 73 94 86 91 97 97 96 98 76 39 56 75 83 81 91 97 97 81 78
18 10 8 7 12 18 16 12 12 11 18 32 44 53 80 95 96 97 96 96 95 85 82 50 63 71 72 87 88 79 63 62
14 12 10 9 19 20 15 13 12 11 23 33 41 65 76 95 96 96 92 97 96 81 77 70 38 50 73 88 89 66 33 58
16 12 10 10 18 18 15 13 11 12 25 44 50 66 73 96 95 95 95 98 96 78 77 76 40 38 98 79 74 82 62 89
17 14 10 12 18 19 15 13 11 25 40 39 44 65 84 95 97 97 96 97 95 83 87 82 79 93 99 85 78 96 99 99
18 17 11 10 20 18 13 14 13 28 37 34 55 73 90 92 94 98 94 99 96 95 86 75 81 78 87 90 90 95 100 98
20 21 14 12 15 14 14 14 12 13 19 32 68 92 94 95 98 97 98 98 93 97 99 81 83 75 93 96 98 98 94 97
25 24 10 13 15 18 16 14 10 15 23 40 84 96 95 91 85 91 97 97 98 98 86 75 84 94 100 96 95 95 92 100
31 16 11 14 18 16 15 10 10 17 27 72 83 96 96 93 94 95 97 96 97 93 60 72 81 80 88 89 92 99 100 98
35 13 15 19 19 16 9 8 19 44 73 86 84 96 96 98 97 98 95 97 96 68 91 78 78 71 82 92 91 97 97 89
22 14 21 23 19 12 7 22 64 84 93 100 96 94 97 96 98 97 97 97 92 81 94 97 95 84 88 94 91 93 98 97
16 21 26 22 18 8 7 18 24 67 86 94 95 97 96 96 97 97 96 97 87 87 96 99 99 94 95 93 91 92 96 95
17 27 28 22 16 8 8 10 20 72 73 85 94 96 97 97 97 96 95 80 82 90 95 95 98 96 94 94 97 90 86 99
20 29 29 22 16 12 12 7 7 18 30 73 89 89 95 97 96 96 96 97 96 97 90 83 94 93 91 95 95 94 94 94
23 29 32 23 17 16 15 8 8 7 11 21 72 82 86 83 94 96 96 92 96 98 96 83 92 96 95 97 96 98 98 97
23 28 36 24 18 18 19 12 12 13 9 8 11 37 75 76 91 96 97 97 97 97 99 91 90 96 97 97 98 97 97 97
23 22 29 27 23 23 21 14 15 15 17 18 16 10 39 63 77 89 96 100 98 98 86 91 99 99 96 97 97 96 97 96
Wind_Speed
35 28 28 30 26 27 32 33 31 27 23 21 30 28 29 33 25 21 21 19 21 24 28 29 30 27 23 24 18 24 23 20
31 27 26 29 27 30 32 29 22 22 25 23 27 27 28 38 30 29 19 19 18 24 28 32 30 29 26 24 18 18 21 24
28 24 24 28 27 27 24 22 21 22 23 23 20 26 30 35 32 29 25 24 15 22 26 30 29 30 26 24 21 22 24 27
26 22 24 24 22 22 20 20 20 21 22 24 25 23 27 26 34 23 31 29 17 14 21 30 29 28 26 25 25 28 29 25
27 22 24 21 20 19 20 19 18 21 24 26 26 26 26 21 35 25 26 27 18 15 13 24 31 30 30 29 28 23 28 33
26 23 22 21 21 20 20 20 20 22 22 25 28 25 25 24 29 27 25 28 20 18 18 20 32 30 30 27 26 28 34 37
26 23 21 22 22 22 21 23 22 25 23 23 23 24 25 24 30 31 29 33 26 18 20 20 27 30 29 29 30 31 36 27
25 23 21 23 21 22 23 23 23 22 18 19 21 24 23 28 25 29 30 38 34 24 21 24 25 29 34 34 33 30 27 23
22 23 21 23 23 24 24 23 24 23 24 23 20 23 23 30 26 25 31 40 35 28 23 23 28 31 31 30 30 24 24 30
21 22 22 23 23 23 22 22 23 22 26 22 20 22 27 30 33 30 28 37 36 33 26 28 24 30 34 33 29 27 27 34
22 20 21 19 18 18 20 22 22 22 22 22 18 22 25 27 33 38 35 36 36 35 25 28 27 30 29 27 26 24 25 30
22 20 16 14 14 16 19 22 22 22 23 19 22 19 23 28 30 34 37 39 41 31 28 35 33 30 28 25 26 24 26 29
25 18 12 10 13 14 18 20 20 19 18 14 20 25 24 33 33 29 34 36 27 29 27 31 33 31 30 26 26 23 24 28
21 17 10 9 13 14 16 15 10 7 8 7 17 19 30 31 33 34 39 35 22 25 23 22 21 23 23 28 26 24 25 29
19 14 10 10 13 14 13 12 12 10 7 6 8 11 27 32 25 33 33 26 26 27 27 22 20 21 22 25 25 24 28 29
19 15 11 11 13 12 11 9 8 4 3 6 8 8 18 24 33 31 31 27 29 30 26 22 25 22 24 26 28 27 29 31
18 16 13 12 13 12 10 8 7 4 4 2 6 8 14 20 30 33 32 30 28 25 27 28 26 27 31 29 29 29 29 29
19 17 15 14 13 12 10 9 7 7 3 2 2 6 11 18 22 28 34 31 31 30 25 30 30 26 26 31 29 29 26 27
20 20 17 15 13 12 10 9 7 8 6 2 2 3 8 11 21 29 31 29 33 32 27 29 31 30 31 30 32 25 25 25
22 19 17 16 14 13 11 10 8 7 8 10 8 6 6 10 15 22 26 26 28 29 29 29 30 33 31 29 31 31 29 31
Wind_Direction
272 279 274 273 276 280 280 285 288 278 277 277 267 288 240 247 241 242 242 229 217 207 210 209 208 211 213 218 232 217 220 227
270 274 268 270 277 278 282 288 282 272 279 278 242 281 225 270 248 246 225 227 223 219 213 208 213 209 213 219 223 215 224 225
269 271 270 267 270 274 275 278 284 279 275 272 258 275 250 245 242 254 236 234 221 225 216 215 213 212 209 215 214 223 228 236
273 269 266 260 260 259 271 276 279 285 274 268 264 264 266 242 236 235 229 232 210 236 221 217 212 212 208 212 224 232 230 232
272 267 263 251 245 254 268 271 276 282 274 267 265 268 260 229 223 215 218 213 212 230 235 224 214 215 213 215 225 215 224 227
268 269 256 245 242 250 261 270 277 281 275 271 270 265 259 226 207 219 210 213 214 222 229 225 213 217 219 219 231 223 225 232
264 265 252 244 243 251 259 267 273 284 278 263 264 256 242 214 220 226 226 206 218 220 219 213 211 216 221 218 229 231 232 247
261 262 250 245 246 253 260 268 274 277 275 286 262 258 236 223 232 219 199 200 213 226 220 217 215 221 230 225 230 231 243 230
255 259 252 243 245 253 260 270 279 273 278 285 274 251 234 228 218 217 217 208 215 224 223 224 222 231 230 228 231 230 217 218
256 258 258 245 244 252 261 271 281 280 278 281 272 241 224 229 223 217 200 207 217 224 226 228 230 231 229 228 218 215 215 227
255 260 257 242 243 255 268 277 279 277 276 276 252 240 235 235 228 220 208 208 215 222 227 222 230 227 221 214 212 214 218 236
265 256 242 237 250 262 274 278 277 280 276 268 233 225 240 231 220 215 218 217 216 229 228 221 226 224 224 219 222 222 223 219
261 247 222 240 258 270 278 281 287 280 268 249 234 236 250 225 212 214 215 211 212 219 220 220 231 229 228 229 231 226 227 231
248 231 212 241 259 273 282 297 297 284 260 257 255 259 216 209 211 221 213 212 220 215 214 217 221 224 226 228 227 229 240 238
238 221 214 238 263 272 283 299 313 277 273 293 259 216 195 205 210 207 209 214 216 210 219 218 223 231 236 240 237 240 254 255
226 217 216 232 256 266 278 293 322 349 250 270 290 228 199 201 194 201 205 203 210 217 221 226 232 237 247 248 245 244 250 252
220 217 216 226 247 258 272 282 300 325 6 236 246 249 230 211 210 215 216 224 221 220 232 240 246 249 252 245 245 243 247 252
218 218 219 221 235 254 272 280 304 309 322 25 236 233 230 236 232 228 227 229 230 237 237 240 260 258 247 240 248 249 249 252
223 222 223 219 225 239 267 270 288 307 312 331 343 294 241 234 237 241 238 237 234 235 248 259 252 255 257 252 252 245 262 252
226 228 226 225 222 231 238 254 275 288 302 313 330 324 292 246 230 232 238 237 238 245 252 259 256 254 261 255 245 254 246 251